Location: Central Falls
(41.8900°N, 71.3929°W)
Time: 05:52:41
(UTC+00:00)

Vanguard 3 - Pass Details

Date: 03 December 2023
Orbit: 508 x 3239 km, 33.4° (Epoch: 01 March)

Event Time Altitude Azimuth Distance (km) Brightness Sun altitude
Rises 23:26:18 0° 191° (S) 6,872 12.1 -23.8°
Reaches altitude 10° 23:35:35 10° 167° (SSE) 5,285 11.2 -25.5°
Maximum altitude 23:40:22 12° 148° (SSE) 4,711 10.8 -26.4°
Enters shadow 23:42:53 11° 137° (SE) 4,542 10.6 -26.9°
